Location: Broletto
(44.6000°N, 10.5833°E)
Time: 00:55:43
(UTC+00:00)

Cosmos 2360 Rocket - Pass Details

Date: 18 April 2021
Orbit: 833 x 845 km, 71.0° (Epoch: 07 May)

Event Time Altitude Azimuth Distance (km) Brightness Sun altitude
Rises 18:51:12 0° 331° (NNW) 3,412 6.3 -8.3°
Reaches altitude 10° 18:53:41 10° 327° (NNW) 2,471 5.6 -8.7°
Maximum altitude 18:59:14 58° 250° (WSW) 978 2.8 -9.6°
Drops below altitude 10° 19:04:44 10° 173° (S) 2,447 4.3 -10.4°
Sets 19:07:11 0° 169° (S) 3,375 5.0 -10.8°
